SL-14 R/B, 20262

Orbit data source: Space-Track

SL-14 R/B, 20262 is space debris in LEO originally from a launch on Thu, 28 Sep 1989 UTC launched from the Plesetsk Missile And Space Complex (PKMTR). Debris objects in space refer to the collection of defunct objects orbiting the Earth. Examples of debris include non-operational satellites, rocket bodies, and fragments generated from explosions, collisions, or faulty payload assembly.

Loading next visibility...
Identifier
20262, 1989-080C
Orbit
LEO
Country
Flag of CISCIS
Related business
Manufacturer
Yuzhnoe
Mission
Spacecraft
Bus & Motor
S5M, Unknown motor
Mass
1,600 kg wet, 1,600 kg dry
Launch date (UTC)
1989-09-28 (37 years ago)
Launch vehicle
Unknown
Launch site
Plesetsk Missile And Space Complex (PKMTR)
Object type
Payload
Rocket body
Debris
Shape & HBR
Cyl, 1.4 m
Radar Cross Section
7.351 m², Large (>1 m²)

Expand to show TLE details & history
Last TLE update: 19 hours ago

TLE from 19 hours ago
0 SL-14 R/B
1 20262U 89080C   26094.64149723  .00000519  00000-0  14698-3 0  9990
2 20262  82.5946 156.5336 1230915 125.4608 246.7757 12.50518925663397
Epoch: 2026-04-04T15:23Z
TLE epoch observation values (Epoch: 2026-04-04T15:23:45.360Z)
Latitude
-0.00004°
Longitude
92.63624°
Altitude
1,938.57 km
Speed
6.712 km/s
True Right ascension
10h 26m 08s
True Declination
0° 00' 00"
Sunlit
Object was in full shadow at epoch
Visualization orbit readout
Latitude
Unknown
Longitude
Unknown
Altitude
Unknown
Speed
Unknown
Apparent Right ascension
Unknown
Apparent Declination
Unknown
Sunlit
N/A
Visualization observer readout
Local Sidereal Time
15:50:36
Azimuth
Unknown
Elevation
Unknown
Doppler factor
Unknown
Orbital elements
Apogee altitude
2,424.359 km
Perigee altitude
494.841 km
Semi-major axis
7,837.737 km
Eccentricity
0.12309
Inclination
82.5946°
RAAN
156.5336°
Arg. of periapsis
125.4608°
True anomaly
234.64687°
Mean anomaly
246.7757°
Eccentric anomaly
240.62957°
Mean motion
3.12793 °/min
Orbital period
115.09 mins
BSTAR
0.00014698
Loading maneuver chart data...
Computing Atmospheric mass density...
Loading historical data...
Loading historical data...
Loading historical data...
Loading historical data...
Loading historical data...
Loading historical data...
Loading historical data...

Documentation

Showing up to 5 results
|